Powrót do katalogu

SL-8 DEB

AktywnyLEO
NORAD 21175·DEBRIS·🇷🇺 Russia

Wystrzelony Feb 12, 1991 z Plesetsk Cosmodrome

Loading…

Następne Przeloty (najbliższe 24 godziny)

TLE

ŚwieżeSource: Space-Track

Epoka: Sep 13, 2026, 20:42 UTC

1 21175U 91009AN  26256.86276571 -.00000029  00000-0 -11346-3 0  9999
2 21175  73.9340  61.4911 0147110 338.0192 142.5662 12.28586211593308

Śledź SL-8 DEB w czasie rzeczywistym z AllMySat

Download on the App Store